timestamp,wind_dir_avg,wind_spd_max_dir,wind_spd_avg,wind_spd_gust,battery_voltage,lat,long
2018-10-10 00:00:00+00:00,199.0,198.0,4.61,5.59,,47.59359,-54.27349
2018-10-10 00:10:00+00:00,195.0,201.0,4.15,4.64,,47.59359,-54.27349
2018-10-10 00:20:00+00:00,195.0,203.0,3.22,3.88,,47.59359,-54.27349
2018-10-10 00:30:00+00:00,184.0,190.0,2.48,3.03,,47.59359,-54.27349
2018-10-10 00:40:00+00:00,180.0,179.0,2.47,3.23,,47.59359,-54.27349
2018-10-10 00:50:00+00:00,172.0,172.0,3.93,4.4,,47.59359,-54.27349
2018-10-10 01:00:00+00:00,162.0,163.0,3.89,4.42,,47.59359,-54.27349
2018-10-10 01:10:00+00:00,167.0,164.0,3.45,4.08,,47.59359,-54.27349
2018-10-10 01:20:00+00:00,165.0,169.0,3.62,4.06,,47.59359,-54.27349
2018-10-10 01:30:00+00:00,165.0,158.0,3.16,3.53,,47.59359,-54.27349
2018-10-10 01:40:00+00:00,175.0,174.0,4.72,5.16,,47.59359,-54.27349
2018-10-10 01:50:00+00:00,167.0,172.0,4.55,5.41,,47.59359,-54.27349
2018-10-10 02:00:00+00:00,173.0,169.0,4.91,5.29,,47.59359,-54.27349
2018-10-10 02:10:00+00:00,187.0,187.0,4.28,4.57,,47.59359,-54.27349
2018-10-10 03:20:00+00:00,137.0,138.0,2.92,3.88,,47.59359,-54.27349
2018-10-10 03:30:00+00:00,139.0,141.0,3.31,4.65,,47.59359,-54.27349
2018-10-10 03:40:00+00:00,141.0,133.0,3.71,4.3,,47.59359,-54.27349
2018-10-10 03:50:00+00:00,132.0,128.0,3.33,4.05,,47.59359,-54.27349
2018-10-10 04:00:00+00:00,131.0,142.0,2.57,3.2,,47.59359,-54.27349
2018-10-10 04:10:00+00:00,103.0,93.0,2.78,3.84,,47.59359,-54.27349
2018-10-10 04:20:00+00:00,124.0,132.0,2.44,3.41,,47.59359,-54.27349
2018-10-10 04:30:00+00:00,107.0,105.0,2.58,4.19,,47.59359,-54.27349
2018-10-10 04:40:00+00:00,89.0,86.0,2.45,3.01,,47.59359,-54.27349
2018-10-10 04:50:00+00:00,115.0,110.0,1.98,3.32,,47.59359,-54.27349
2018-10-10 05:00:00+00:00,90.0,85.0,2.92,3.84,,47.59359,-54.27349
2018-10-10 05:10:00+00:00,90.0,83.0,2.95,3.81,,47.59359,-54.27349
2018-10-10 05:20:00+00:00,99.0,104.0,2.56,3.48,,47.59359,-54.27349
2018-10-10 05:30:00+00:00,83.0,78.0,3.35,4.18,,47.59359,-54.27349
2018-10-10 05:40:00+00:00,95.0,103.0,2.42,2.9,,47.59359,-54.27349
2018-10-10 05:50:00+00:00,104.0,95.0,2.14,3.06,,47.59359,-54.27349
2018-10-10 06:00:00+00:00,90.0,81.0,2.13,2.73,,47.59359,-54.27349
2018-10-10 06:10:00+00:00,85.0,86.0,2.9,4.27,,47.59359,-54.27349
2018-10-10 06:20:00+00:00,88.0,87.0,2.58,3.14,,47.59359,-54.27349
2018-10-10 06:30:00+00:00,90.0,89.0,2.94,3.76,,47.59359,-54.27349
2018-10-10 06:40:00+00:00,83.0,85.0,2.79,3.45,,47.59359,-54.27349
2018-10-10 06:50:00+00:00,85.0,89.0,3.43,4.39,,47.59359,-54.27349
2018-10-10 07:00:00+00:00,81.0,77.0,2.99,3.49,,47.59359,-54.27349
2018-10-10 07:10:00+00:00,77.0,74.0,3.42,4.28,,47.59359,-54.27349
2018-10-10 07:20:00+00:00,67.0,69.0,3.3,3.71,,47.59359,-54.27349
2018-10-10 07:30:00+00:00,71.0,72.0,3.84,4.71,,47.59359,-54.27349
2018-10-10 07:40:00+00:00,85.0,86.0,4.04,4.51,,47.59359,-54.27349
2018-10-10 07:50:00+00:00,81.0,79.0,4.73,5.19,,47.59359,-54.27349
2018-10-10 08:00:00+00:00,80.0,81.0,4.95,5.27,,47.59359,-54.27349
2018-10-10 08:10:00+00:00,74.0,69.0,4.81,5.12,,47.59359,-54.27349
2018-10-10 08:20:00+00:00,84.0,86.0,3.95,4.83,,47.59359,-54.27349
2018-10-10 08:30:00+00:00,85.0,84.0,4.06,4.68,,47.59359,-54.27349
2018-10-10 08:40:00+00:00,80.0,83.0,5.45,5.87,,47.59359,-54.27349
2018-10-10 08:50:00+00:00,79.0,80.0,4.01,4.56,,47.59359,-54.27349
2018-10-10 09:00:00+00:00,82.0,82.0,4.35,4.53,,47.59359,-54.27349
2018-10-10 09:10:00+00:00,75.0,79.0,5.62,6.12,,47.59359,-54.27349
2018-10-10 09:20:00+00:00,59.0,56.0,6.14,6.59,,47.59359,-54.27349
2018-10-10 09:30:00+00:00,57.0,56.0,6.09,6.65,,47.59359,-54.27349
2018-10-10 09:40:00+00:00,58.0,57.0,6.19,6.97,,47.59359,-54.27349
2018-10-10 09:50:00+00:00,55.0,54.0,5.89,6.62,,47.59359,-54.27349
2018-10-10 10:00:00+00:00,58.0,54.0,5.92,6.84,,47.59359,-54.27349
2018-10-10 10:10:00+00:00,49.0,46.0,6.6,7.25,,47.59359,-54.27349
2018-10-10 10:20:00+00:00,46.0,43.0,6.21,6.86,,47.59359,-54.27349
2018-10-10 10:30:00+00:00,47.0,44.0,5.64,6.22,,47.59359,-54.27349
2018-10-10 10:40:00+00:00,50.0,47.0,6.01,6.77,,47.59359,-54.27349
2018-10-10 10:50:00+00:00,45.0,45.0,4.75,5.11,,47.59359,-54.27349
2018-10-10 11:00:00+00:00,59.0,59.0,4.03,4.73,,47.59359,-54.27349
2018-10-10 11:10:00+00:00,52.0,52.0,3.42,3.84,,47.59359,-54.27349
2018-10-10 11:20:00+00:00,40.0,50.0,3.88,4.51,,47.59359,-54.27349
2018-10-10 11:30:00+00:00,44.0,45.0,3.19,3.85,,47.59359,-54.27349
2018-10-10 11:40:00+00:00,30.0,37.0,3.22,3.74,,47.59359,-54.27349
2018-10-10 11:50:00+00:00,23.0,14.0,3.27,3.97,,47.59359,-54.27349
2018-10-10 12:00:00+00:00,29.0,38.0,3.04,3.94,,47.59359,-54.27349
2018-10-10 12:10:00+00:00,25.0,23.0,3.44,3.73,,47.59359,-54.27349
2018-10-10 12:20:00+00:00,13.0,11.0,3.22,3.94,,47.59359,-54.27349
2018-10-10 12:30:00+00:00,6.0,4.0,3.53,4.29,,47.59359,-54.27349
2018-10-10 12:40:00+00:00,4.0,357.0,2.95,3.33,,47.59359,-54.27349
2018-10-10 12:50:00+00:00,359.0,3.0,3.26,4.08,,47.59359,-54.27349
2018-10-10 13:00:00+00:00,5.0,16.0,2.33,2.78,,47.59359,-54.27349
2018-10-10 13:10:00+00:00,3.0,1.0,3.44,3.89,,47.59359,-54.27349
2018-10-10 13:20:00+00:00,7.0,8.0,3.41,3.76,,47.59359,-54.27349
2018-10-10 13:30:00+00:00,351.0,345.0,3.44,3.84,,47.59359,-54.27349
2018-10-10 13:40:00+00:00,348.0,345.0,2.72,3.74,,47.59359,-54.27349
2018-10-10 13:50:00+00:00,341.0,341.0,4.63,5.08,,47.59359,-54.27349
2018-10-10 14:00:00+00:00,322.0,323.0,3.54,3.93,,47.59359,-54.27349
2018-10-10 14:10:00+00:00,328.0,327.0,3.62,4.11,,47.59359,-54.27349
2018-10-10 14:20:00+00:00,315.0,316.0,3.25,4.12,,47.59359,-54.27349
2018-10-10 14:30:00+00:00,320.0,321.0,3.13,3.57,,47.59359,-54.27349
2018-10-10 14:40:00+00:00,324.0,326.0,5.35,6.0,,47.59359,-54.27349
2018-10-10 14:50:00+00:00,340.0,342.0,5.94,6.69,,47.59359,-54.27349
2018-10-10 15:00:00+00:00,329.0,333.0,7.16,7.73,,47.59359,-54.27349
2018-10-10 15:10:00+00:00,342.0,342.0,6.71,7.49,,47.59359,-54.27349
2018-10-10 15:20:00+00:00,344.0,347.0,7.65,8.98,,47.59359,-54.27349
2018-10-10 15:30:00+00:00,333.0,337.0,9.69,11.09,,47.59359,-54.27349
2018-10-10 15:40:00+00:00,349.0,350.0,8.05,9.58,,47.59359,-54.27349
2018-10-10 15:50:00+00:00,330.0,330.0,10.75,11.87,,47.59359,-54.27349
2018-10-10 16:00:00+00:00,349.0,350.0,9.3,10.96,,47.59359,-54.27349
2018-10-10 16:10:00+00:00,348.0,351.0,9.97,11.37,,47.59359,-54.27349
2018-10-10 16:20:00+00:00,354.0,354.0,10.55,11.91,,47.59359,-54.27349
2018-10-10 16:30:00+00:00,355.0,348.0,10.24,12.05,,47.59359,-54.27349
2018-10-10 16:40:00+00:00,5.0,7.0,8.16,9.34,,47.59359,-54.27349
2018-10-10 16:50:00+00:00,341.0,342.0,9.38,12.08,,47.59359,-54.27349
2018-10-10 17:00:00+00:00,356.0,356.0,11.48,14.98,,47.59359,-54.27349
2018-10-10 17:10:00+00:00,352.0,354.0,8.88,10.41,,47.59359,-54.27349
2018-10-10 17:20:00+00:00,348.0,347.0,10.53,12.17,,47.59359,-54.27349
2018-10-10 17:30:00+00:00,357.0,355.0,9.7,10.92,,47.59359,-54.27349
2018-10-10 17:40:00+00:00,354.0,357.0,8.35,9.54,,47.59359,-54.27349
2018-10-10 17:50:00+00:00,348.0,350.0,8.76,10.15,,47.59359,-54.27349
2018-10-10 18:00:00+00:00,6.0,4.0,8.72,9.6,,47.59359,-54.27349
2018-10-10 18:10:00+00:00,0.0,7.0,7.34,8.83,,47.59359,-54.27349
2018-10-10 18:20:00+00:00,351.0,355.0,8.17,9.24,,47.59359,-54.27349
2018-10-10 18:30:00+00:00,348.0,343.0,10.99,11.96,,47.59359,-54.27349
2018-10-10 18:40:00+00:00,354.0,358.0,10.35,11.71,,47.59359,-54.27349
2018-10-10 18:50:00+00:00,348.0,348.0,9.3,10.09,,47.59359,-54.27349
2018-10-10 19:00:00+00:00,349.0,346.0,9.65,10.71,,47.59359,-54.27349
2018-10-10 19:10:00+00:00,4.0,4.0,10.33,11.91,,47.59359,-54.27349
2018-10-10 19:20:00+00:00,356.0,359.0,7.45,8.62,,47.59359,-54.27349
2018-10-10 19:30:00+00:00,346.0,342.0,10.82,11.96,,47.59359,-54.27349
2018-10-10 19:40:00+00:00,354.0,350.0,8.28,9.5,,47.59359,-54.27349
2018-10-10 19:50:00+00:00,354.0,358.0,9.8,11.84,,47.59359,-54.27349
2018-10-10 20:00:00+00:00,352.0,4.0,9.28,10.58,,47.59359,-54.27349
2018-10-10 20:10:00+00:00,358.0,351.0,9.21,11.1,,47.59359,-54.27349
2018-10-10 20:20:00+00:00,349.0,346.0,8.36,9.48,,47.59359,-54.27349
2018-10-10 20:30:00+00:00,348.0,344.0,7.75,8.85,,47.59359,-54.27349
2018-10-10 20:40:00+00:00,348.0,346.0,7.71,8.75,,47.59359,-54.27349
2018-10-10 20:50:00+00:00,343.0,342.0,7.54,8.89,,47.59359,-54.27349
2018-10-10 21:00:00+00:00,333.0,334.0,6.02,7.08,,47.59359,-54.27349
2018-10-10 21:10:00+00:00,335.0,338.0,6.26,7.69,,47.59359,-54.27349
2018-10-10 21:20:00+00:00,343.0,346.0,7.18,8.46,,47.59359,-54.27349
2018-10-10 21:30:00+00:00,338.0,329.0,8.34,10.97,,47.59359,-54.27349
2018-10-10 21:40:00+00:00,346.0,344.0,7.75,8.99,,47.59359,-54.27349
2018-10-10 21:50:00+00:00,356.0,355.0,8.72,10.17,,47.59359,-54.27349
2018-10-10 22:00:00+00:00,356.0,357.0,10.35,11.95,,47.59359,-54.27349
2018-10-10 22:10:00+00:00,356.0,354.0,9.56,10.5,,47.59359,-54.27349
2018-10-10 22:20:00+00:00,346.0,346.0,11.94,14.48,,47.59359,-54.27349
2018-10-10 22:30:00+00:00,350.0,353.0,10.68,11.65,,47.59359,-54.27349
2018-10-10 22:40:00+00:00,356.0,353.0,9.93,11.08,,47.59359,-54.27349
2018-10-10 22:50:00+00:00,4.0,10.0,10.84,12.53,,47.59359,-54.27349
2018-10-10 23:00:00+00:00,20.0,30.0,11.01,12.42,,47.59359,-54.27349
2018-10-10 23:10:00+00:00,4.0,357.0,11.37,13.18,,47.59359,-54.27349
2018-10-10 23:20:00+00:00,9.0,8.0,9.66,11.2,,47.59359,-54.27349
2018-10-10 23:30:00+00:00,357.0,1.0,8.11,9.42,,47.59359,-54.27349
2018-10-10 23:40:00+00:00,10.0,14.0,6.87,7.95,,47.59359,-54.27349
2018-10-10 23:50:00+00:00,9.0,14.0,7.25,8.7,,47.59359,-54.27349
